Location: Dal�� Lhota
(48.7500°N, 14.0167°E)
Time: 02:06:51
(UTC+00:00)

Cosmos 1844 Rocket - Pass Details

Date: 24 September 2020
Orbit: 823 x 846 km, 71.0° (Epoch: 29 October)

Event Time Altitude Azimuth Distance (km) Brightness Sun altitude
Rises 17:55:43 0° 197° (SSW) 3,346 5.9 -10.5°
Reaches altitude 10° 17:58:09 10° 194° (SSW) 2,419 5.1 -10.9°
Maximum altitude 18:03:38 67° 113° (ESE) 899 2.6 -11.8°
Drops below altitude 10° 18:09:11 10° 33° (NNE) 2,447 4.9 -12.7°
Sets 18:11:39 0° 30° (NNE) 3,389 5.7 -13.0°
